Location: Christianberg
(48.9086°N, 14.0209°E)
Time: 22:27:40
(UTC+00:00)

Okean 3 Rocket - Pass Details

Date: 20 June 2021
Orbit: 616 x 644 km, 82.5° (Epoch: 04 August)

Event Time Altitude Azimuth Distance (km) Brightness Sun altitude
Exits shadow 01:32:34 - 174° (S) 2,190 5.9 -10.6°
Reaches altitude 10° 01:33:06 10° 173° (S) 1,979 5.7 -10.5°
Maximum altitude 01:37:23 57° 95° (E) 734 4.1 -10.1°
Drops below altitude 10° 01:41:41 10° 17° (NNE) 1,990 7.5 -9.7°
Sets 01:43:57 0° 14° (NNE) 2,901 8.4 -9.5°
